{"data":{"norad_id":56136,"epoch":"2026-05-25T04:47:40.333632Z","epoch_age_seconds":56993,"freshness":"FRESH","line1":"1 56136U 23046AW  26145.19977238  .00000572  00000+0  30332-4 0  9998","line2":"2 56136  43.0052  74.7022 0001393 254.1032 105.9666 15.27575492173902","mean_motion":15.27575492,"eccentricity":0.0001393,"inclination_deg":43.0052,"raan_deg":74.7022,"arg_perigee_deg":254.1032,"mean_anomaly_deg":105.9666,"bstar":3.0332e-5,"rev_number":17390,"period_min":94.267026902524,"perigee_km":482.10682954306,"apogee_km":484.01835975013,"semimajor_km":6861.1995946466,"source":"CELESTRAK","updated_at":"2026-05-25T13:38:17.961671Z"}}